Rochester/St. Mary's Hospita, MN
on Friday, August 29, 2014

Friday
Previous Day Next Day
Daily Summary
 ActualAverage (KRST)Record (KRST)
Temperature
Mean Temperature °F 67°F  
Max Temperature 82°F 77°F 92°F (1945)
Min Temperature 64°F 57°F 34°F (1935)
Degree Days
Heating Degree Days 0 1  
Month to date heating degree days 26  
Since 1 July heating degree days 37  
Cooling Degree Days 8 4  
Month to date cooling degree days 148  
Year to date cooling degree days 519  
Growing Degree Days22 (Base °F )  
Moisture
Dew Point 66°F   
Average Humidity 85    
Maximum Humidity 98    
Minimum Humidity 60    
Precipitation
Precipitation 0.95 in 0.14 in 2.39 in (1956)
Month to date precipitation 4.24  
Year to date precipitation 23.91  
Since 1 June precipitation 13.47  
Snow
Snow 0.00 in 0.00 in 0.00 in (2012)
Month to date snowfall 0.0  
Since 1 July snowfall 0.0  
Snow Depth in   
Wind
Wind Speed 8 mph   
Max Wind Speed 15 mph   
Max Gust Speed 24 mph   
Visibility 8 miles   
Events     

Key: T is trace of precipitation, MM is missing value
Source: NWS Daily Summary
Time(CDT)TemperatureDew PointHumidity Pressure Visibility Wind DirectionWind SpeedGust SpeedPrecipitationEvents Conditions
12:12 AM 65.5°F 64.8°F 98% 29.93 in 2.5 miles ESE 10.4 mph - 0.01 in   Overcast
12:32 AM 65.7°F 64.9°F 98% 29.92 in 1.5 miles ESE 8.1 mph - 0.06 in   Overcast
12:51 AM 65.7°F 65.1°F 98% 29.92 in 1.2 miles ESE 9.2 mph - 0.06 in   Overcast
1:12 AM 65.8°F 65.3°F 98% 29.91 in 1.0 miles ESE 8.1 mph - N/A   Overcast
1:32 AM 65.8°F 65.3°F 98% 29.91 in 1.8 miles ESE 8.1 mph - 0.14 in   Overcast
1:51 AM 65.8°F 65.3°F 98% 29.90 in 3.0 miles ESE 9.2 mph - 0.28 in   Overcast
2:12 AM 66.2°F 65.5°F 98% 29.90 in 3.0 miles SE 10.4 mph - N/A   Overcast
2:32 AM 66.6°F 65.8°F 98% 29.89 in 4.0 miles SE 6.9 mph - 0.02 in   Overcast
2:51 AM 67.1°F 66.2°F 97% 29.88 in 5.0 miles SE 5.8 mph - 0.03 in   Overcast
3:12 AM 67.1°F 66.4°F 98% 29.87 in 5.0 miles SE 8.1 mph - 0.01 in   Overcast
3:32 AM 67.3°F 66.6°F 98% 29.86 in 5.0 miles SE 9.2 mph - 0.01 in   Overcast
3:51 AM 67.3°F 66.6°F 98% 29.86 in 5.0 miles SE 9.2 mph - 0.01 in   Overcast
4:12 AM 67.3°F 66.6°F 98% 29.86 in 7.0 miles SE 6.9 mph - N/A   Overcast
4:32 AM 67.3°F 66.6°F 98% 29.85 in 7.0 miles ESE 8.1 mph - N/A   Mostly Cloudy
4:51 AM 67.3°F 66.6°F 98% 29.86 in 7.0 miles ESE 8.1 mph - N/A   Mostly Cloudy
5:12 AM 67.3°F 66.6°F 98% 29.85 in 7.0 miles SE 6.9 mph - N/A   Overcast
5:32 AM 67.3°F 66.6°F 98% 29.84 in 10.0 miles SE 6.9 mph - N/A   Mostly Cloudy
5:51 AM 67.3°F 66.6°F 98% 29.84 in 10.0 miles ESE 9.2 mph - N/A   Mostly Cloudy
6:12 AM 67.1°F 66.4°F 98% 29.85 in 10.0 miles SE 9.2 mph - N/A   Overcast
6:31 AM 67.1°F 66.4°F 98% 29.85 in 10.0 miles ESE 8.1 mph - N/A   Overcast
6:51 AM 67.1°F 66.4°F 98% 29.85 in 10.0 miles ESE 6.9 mph - N/A   Overcast
7:12 AM 67.3°F 66.4°F 97% 29.85 in 10.0 miles SE 5.8 mph - N/A   Overcast
7:31 AM 67.3°F 66.4°F 97% 29.85 in 10.0 miles SE 6.9 mph - N/A   Overcast
7:51 AM 67.3°F 66.4°F 97% 29.85 in 10.0 miles SE 5.8 mph - N/A   Overcast
8:12 AM 67.6°F 66.7°F 97% 29.83 in 10.0 miles ESE 9.2 mph - N/A   Overcast
8:31 AM 68.0°F 66.9°F 96% 29.83 in 10.0 miles SE 9.2 mph - N/A   Overcast
8:52 AM 68.4°F 67.1°F 96% 29.83 in 10.0 miles SSE 11.5 mph 20.7 mph N/A   Overcast
9:12 AM 69.8°F 67.1°F 91% 29.85 in 10.0 miles South 11.5 mph - N/A   Overcast
9:31 AM 70.2°F 66.4°F 88% 29.84 in 10.0 miles SE 8.1 mph - N/A   Mostly Cloudy
10:11 AM 73.2°F 67.1°F 81% 29.84 in 10.0 miles SSE 6.9 mph - N/A   Scattered Clouds
10:31 AM 74.8°F 67.5°F 78% 29.84 in 10.0 miles South 4.6 mph - N/A   Mostly Cloudy
10:52 AM 75.4°F 66.7°F 74% 29.84 in 10.0 miles SSE 6.9 mph - N/A   Scattered Clouds
11:11 AM 77.0°F 66.2°F 69% 29.83 in 10.0 miles South 5.8 mph - N/A   Clear
11:32 AM 77.9°F 66.0°F 67% 29.83 in 10.0 miles SSE 6.9 mph - N/A   Clear
11:52 AM 79.0°F 66.0°F 64% 29.83 in 10.0 miles SSE 8.1 mph - N/A   Clear
12:11 PM 79.7°F 66.4°F 64% 29.82 in 10.0 miles South 8.1 mph 16.1 mph N/A   Clear
12:32 PM 80.6°F 66.9°F 63% 29.82 in 10.0 miles SSE 11.5 mph 17.3 mph N/A   Scattered Clouds
12:51 PM 81.9°F 66.7°F 60% 29.81 in 10.0 miles SSE 11.5 mph 18.4 mph N/A   Scattered Clouds
1:11 PM 81.9°F 66.6°F 60% 29.81 in 10.0 miles South 15.0 mph 19.6 mph N/A   Scattered Clouds
1:32 PM 81.3°F 67.5°F 63% 29.81 in 10.0 miles South 8.1 mph - N/A   Mostly Cloudy
1:51 PM 80.8°F 66.9°F 63% 29.81 in 10.0 miles South 11.5 mph 17.3 mph N/A   Overcast
2:11 PM 80.8°F 67.3°F 63% 29.80 in 10.0 miles SSW 11.5 mph - N/A   Overcast
2:32 PM 80.6°F 67.1°F 63% 29.78 in 10.0 miles SSW 11.5 mph 18.4 mph N/A   Mostly Cloudy
2:51 PM 81.0°F 67.3°F 63% 29.77 in 10.0 miles SW 6.9 mph - N/A   Scattered Clouds
3:11 PM 79.3°F 68.5°F 69% 29.78 in 7.0 miles SW 10.4 mph - 0.04 in   Mostly Cloudy
3:32 PM 70.0°F 65.1°F 85% 29.76 in 3.0 miles SSE 10.4 mph - 0.35 in   Overcast
3:51 PM 73.2°F 65.8°F 78% 29.75 in 10.0 miles South 6.9 mph - 0.35 in   Scattered Clouds
4:11 PM 77.2°F 66.2°F 69% 29.75 in 10.0 miles South 6.9 mph - N/A   Clear
4:32 PM 78.6°F 68.0°F 70% 29.75 in 10.0 miles South 5.8 mph - N/A   Clear
4:51 PM 77.7°F 68.0°F 72% 29.75 in 10.0 miles South 10.4 mph - N/A   Scattered Clouds
5:11 PM 78.3°F 66.9°F 68% 29.75 in 10.0 miles WSW 11.5 mph 17.3 mph N/A   Scattered Clouds
5:32 PM 78.3°F 65.1°F 64% 29.75 in 10.0 miles WSW 6.9 mph - N/A   Clear
5:51 PM 77.4°F 65.5°F 67% 29.76 in 10.0 miles SW 6.9 mph - N/A   Clear
6:12 PM 77.0°F 66.7°F 70% 29.76 in 10.0 miles WSW 3.5 mph - N/A   Clear
6:32 PM 77.0°F 67.5°F 72% 29.78 in 10.0 miles Calm Calm - N/A   Scattered Clouds
6:51 PM 76.8°F 68.0°F 74% 29.78 in 7.0 miles Calm Calm - N/A   Overcast
7:12 PM 74.8°F 69.3°F 83% 29.77 in 10.0 miles West 6.9 mph - N/A   Overcast
7:32 PM 74.3°F 68.2°F 81% 29.78 in 10.0 miles WSW 6.9 mph - N/A   Overcast
7:51 PM 73.4°F 67.6°F 82% 29.77 in 10.0 miles West 5.8 mph - 0.01 in   Overcast
8:12 PM 72.5°F 68.2°F 86% 29.79 in 10.0 miles Calm Calm - N/A   Overcast
8:32 PM 71.1°F 67.8°F 89% 29.82 in 7.0 miles South 13.8 mph 21.9 mph 0.02 in   Overcast
8:51 PM 67.1°F 64.6°F 92% 29.82 in 10.0 miles SE 11.5 mph 24.2 mph 0.08 in   Overcast
9:12 PM 66.2°F 64.4°F 94% 29.82 in 7.0 miles SE 8.1 mph 17.3 mph 0.03 in   Overcast
9:32 PM 65.7°F 64.4°F 96% 29.80 in 7.0 miles SE 5.8 mph - 0.11 in   Overcast
9:51 PM 65.7°F 64.0°F 94% 29.79 in 10.0 miles Calm Calm - 0.13 in   Overcast
10:12 PM 65.7°F 63.5°F 93% 29.78 in 10.0 miles Calm Calm - N/A   Overcast
10:32 PM 65.7°F 64.0°F 94% 29.77 in 10.0 miles SSE 4.6 mph - N/A   Overcast
10:51 PM 65.1°F 63.9°F 96% 29.76 in 10.0 miles SE 4.6 mph - N/A   Mostly Cloudy
11:12 PM 64.9°F 63.9°F 96% 29.76 in 10.0 miles ESE 4.6 mph - N/A   Scattered Clouds
11:32 PM 64.8°F 63.5°F 96% 29.77 in 10.0 miles Calm Calm - N/A   Scattered Clouds
11:51 PM 64.9°F 63.5°F 95% 29.78 in 10.0 miles SSW 3.5 mph - N/A   Mostly Cloudy
Astronomy
Sunrise:06:29 AM (CDT) Moon Rise:10:29 AM (CDT)8/29
Sunset:07:51 PM (CDT) Moon Set:09:38 PM (CDT)8/29
Moon Phase
Aug. 29 Sep. 02 Sep. 08 Sep. 15 Sep. 24

Copyright © 2014 The Weather Underground, Inc.